This is the latest recevied weather packets stored in our database for station/object N4AN. If no packets are shown the sender has not sent any weather packets the latest 10 day(s).
| Time | Temp. | Humidity | Pressure | Rain* | Wind** | Luminosity | Snow |
|---|---|---|---|---|---|---|---|
| 1787435737 | 31.67° C | 69% | 1010.3 hPa | 0 mm | - | - | - |
| 1787435437 | 31.67° C | 69% | 1010.4 hPa | 0 mm | - | - | - |
| 1787435137 | 31.67° C | 72% | 1010.5 hPa | 0 mm | - | - | - |
| 1787434836 | 31.67° C | 71% | 1010.6 hPa | 0 mm | - | - | - |
| 1787434517 | 31.67° C | 72% | 1010.7 hPa | 0 mm | - | - | - |
| 1787434209 | 31.67° C | 72% | 1010.6 hPa | 0 mm | - | - | - |
| 1787433907 | 31.67° C | 72% | 1010.7 hPa | 0 mm | - | - | - |
| 1787433597 | 31.67° C | 72% | 1010.7 hPa | 0 mm | - | - | - |
| 1787433279 | 31.67° C | 72% | 1010.6 hPa | 0 mm | - | - | - |
| 1787432978 | 31.67° C | 71% | 1010.6 hPa | 0 mm | - | - | - |
| 1787432677 | 31.67° C | 70% | 1010.4 hPa | 0 mm | - | - | - |
| 1787432377 | 32.22° C | 70% | 1010 hPa | 0 mm | - | - | - |
| 1787432077 | 32.22° C | 70% | 1009.9 hPa | 0 mm | - | - | - |
| 1787431777 | 32.22° C | 70% | 1010 hPa | 0 mm | - | - | - |
| 1787431476 | 32.78° C | 69% | 1009.9 hPa | 0 mm | - | - | - |
| 1787431175 | 32.78° C | 68% | 1010.2 hPa | 0 mm | - | - | - |
| 1787430875 | 33.33° C | 69% | 1010.1 hPa | 0 mm | - | - | - |
| 1787430573 | 33.33° C | 68% | 1010.1 hPa | 0 mm | - | - | - |
| 1787429973 | 33.89° C | 66% | 1010.2 hPa | 0 mm | - | - | - |
| 1787429671 | 33.89° C | 65% | 1010.3 hPa | 0 mm | - | - | - |
| 1787429371 | 33.89° C | 67% | 1010.2 hPa | 0 mm | - | - | - |
| 1787429066 | 33.89° C | 65% | 1010.2 hPa | 0 mm | - | - | - |
| 1787428766 | 33.33° C | 68% | 1010.1 hPa | 0 mm | - | - | - |
| 1787428466 | 32.78° C | 68% | 1010.5 hPa | 0 mm | - | - | - |
| 1787428165 | 32.78° C | 69% | 1010.7 hPa | 0 mm | - | - | - |
* Rain latest hour (hover to see other rain measurements)
** Current wind speed in m/s (hover to see current wind gust speed)